�������l�o���
Date,Time,MP-1(��Sv/h),MP-2(��Sv/h),MP-3(��Sv/h),MP-4(��Sv/h),MP-5(��Sv/h),MP-6(��Sv/h),MP-7(��Sv/h),MP-8(��Sv/h),����,����(m/s),���J
2023/06/17,00:00,0.511,0.756,0.469,0.919,0.644,0.317,0.551,0.522,�k��,6.4,��
2023/06/17,00:10,0.511,0.758,0.468,0.920,0.645,0.316,0.552,0.523,�k��,5.5,��
2023/06/17,00:20,0.509,0.758,0.468,0.917,0.644,0.316,0.550,0.521,�k��,5.6,��
2023/06/17,00:30,0.512,0.754,0.469,0.921,0.643,0.317,0.550,0.523,�k��,6.9,��
2023/06/17,00:40,0.511,0.754,0.469,0.920,0.643,0.317,0.550,0.522,���k��,7.3,��
2023/06/17,00:50,0.511,0.757,0.470,0.921,0.645,0.316,0.551,0.523,���k��,7.4,��
2023/06/17,01:00,0.510,0.758,0.470,0.919,0.645,0.316,0.550,0.522,���k��,7.7,��
2023/06/17,01:10,0.511,0.756,0.469,0.920,0.644,0.316,0.552,0.522,���k��,6.2,��
2023/06/17,01:20,0.511,0.758,0.470,0.920,0.646,0.317,0.551,0.523,���k��,4.8,��
2023/06/17,01:30,0.510,0.760,0.469,0.919,0.645,0.316,0.550,0.522,��,3.8,��
2023/06/17,01:40,0.510,0.758,0.470,0.918,0.644,0.317,0.550,0.522,��,2.5,��
2023/06/17,01:50,0.511,0.758,0.471,0.920,0.646,0.316,0.551,0.522,���쐼,0.9,��
2023/06/17,02:00,0.512,0.756,0.469,0.920,0.646,0.317,0.551,0.522,��,1.2,��
2023/06/17,02:10,0.511,0.758,0.470,0.919,0.645,0.318,0.550,0.523,��,1.5,��
2023/06/17,02:20,0.511,0.758,0.469,0.921,0.644,0.317,0.552,0.523,��,1.2,��
2023/06/17,02:30,0.510,0.758,0.467,0.921,0.646,0.317,0.551,0.521,���k��,0.9,��
2023/06/17,02:40,0.511,0.759,0.469,0.918,0.645,0.316,0.552,0.523,�k��,1.2,��
2023/06/17,02:50,0.510,0.758,0.469,0.922,0.644,0.316,0.552,0.522,�k��,1.4,��
2023/06/17,03:00,0.511,0.758,0.468,0.919,0.646,0.316,0.551,0.523,���쐼,0.6,��
2023/06/17,03:10,0.511,0.757,0.468,0.919,0.646,0.317,0.552,0.522,��,1.1,��
2023/06/17,03:20,0.510,0.760,0.469,0.921,0.646,0.316,0.552,0.523,��,1.2,��
2023/06/17,03:30,0.511,0.759,0.470,0.920,0.646,0.316,0.551,0.523,���쐼,1.5,��
2023/06/17,03:40,0.511,0.758,0.470,0.920,0.646,0.317,0.550,0.521,��,2.0,��
2023/06/17,03:50,0.510,0.756,0.469,0.918,0.643,0.316,0.550,0.521,��,1.5,��
2023/06/17,04:00,0.510,0.757,0.468,0.920,0.648,0.317,0.551,0.520,�k�k��,1.2,��
2023/06/17,04:10,0.512,0.756,0.468,0.921,0.647,0.316,0.552,0.522,���k��,2.8,��
2023/06/17,04:20,0.511,0.757,0.468,0.920,0.647,0.315,0.551,0.522,��,2.3,��
2023/06/17,04:30,0.510,0.758,0.467,0.921,0.647,0.316,0.553,0.522,���k��,2.3,��
2023/06/17,04:40,0.513,0.759,0.469,0.922,0.645,0.316,0.552,0.521,��,1.4,��
2023/06/17,04:50,0.509,0.758,0.470,0.923,0.648,0.317,0.552,0.523,���쐼,0.9,��
2023/06/17,05:00,0.510,0.758,0.468,0.923,0.646,0.316,0.552,0.523,�쐼,0.8,��
2023/06/17,05:10,0.511,0.758,0.467,0.925,0.647,0.315,0.550,0.523,���쐼,1.7,��
2023/06/17,05:20,0.510,0.757,0.468,0.920,0.646,0.317,0.552,0.522,��,1.7,��
2023/06/17,05:30,0.512,0.758,0.469,0.922,0.649,0.316,0.552,0.523,��,1.4,��
2023/06/17,05:40,0.513,0.761,0.470,0.919,0.647,0.317,0.553,0.521,���쐼,1.5,��
2023/06/17,05:50,0.513,0.759,0.470,0.923,0.647,0.317,0.552,0.525,���쐼,1.1,��
2023/06/17,06:00,0.512,0.760,0.471,0.921,0.649,0.317,0.552,0.523,���쐼,1.5,��
2023/06/17,06:10,0.512,0.760,0.469,0.921,0.650,0.316,0.551,0.524,-,CALM,��
2023/06/17,06:20,0.512,0.760,0.472,0.920,0.648,0.317,0.552,0.524,��,1.5,��
2023/06/17,06:30,0.513,0.761,0.472,0.924,0.649,0.316,0.552,0.523,��,1.5,��
2023/06/17,06:40,0.513,0.760,0.470,0.921,0.648,0.316,0.552,0.523,���쐼,0.6,��
2023/06/17,06:50,0.512,0.760,0.470,0.923,0.648,0.316,0.551,0.524,���k��,1.4,��
2023/06/17,07:00,0.512,0.762,0.470,0.923,0.649,0.317,0.550,0.523,���쐼,1.4,��
2023/06/17,07:10,0.513,0.760,0.472,0.921,0.649,0.316,0.550,0.524,��,1.4,��
2023/06/17,07:20,0.513,0.760,0.470,0.923,0.648,0.315,0.551,0.524,��,1.7,��
2023/06/17,07:30,0.510,0.759,0.471,0.923,0.647,0.315,0.552,0.523,��,1.1,��
2023/06/17,07:40,0.511,0.761,0.470,0.922,0.651,0.316,0.551,0.521,��쐼,0.6,��
2023/06/17,07:50,0.512,0.759,0.471,0.924,0.648,0.316,0.551,0.521,�쐼,1.5,��
2023/06/17,08:00,0.512,0.760,0.470,0.924,0.649,0.317,0.551,0.522,�k,0.6,��
2023/06/17,08:10,0.511,0.759,0.469,0.923,0.648,0.316,0.550,0.522,�쓌,0.6,��
2023/06/17,08:20,0.511,0.759,0.469,0.924,0.647,0.316,0.551,0.520,���쓌,0.6,��
2023/06/17,08:30,0.513,0.759,0.470,0.924,0.649,0.316,0.551,0.522,���k��,1.4,��
2023/06/17,08:40,0.512,0.759,0.470,0.923,0.649,0.317,0.553,0.522,�쓌,1.5,��
2023/06/17,08:50,0.511,0.760,0.469,0.924,0.650,0.317,0.550,0.522,�쓌,2.2,��
2023/06/17,09:00,0.512,0.763,0.471,0.924,0.649,0.317,0.551,0.523,�쓌,2.5,��
2023/06/17,09:10,0.514,0.761,0.471,0.923,0.651,0.318,0.552,0.522,�쓌,3.4,��
2023/06/17,09:20,0.514,0.765,0.471,0.923,0.651,0.317,0.551,0.522,��쓌,3.9,��
2023/06/17,09:30,0.514,0.763,0.472,0.925,0.651,0.319,0.552,0.523,��쓌,4.7,��
2023/06/17,09:40,0.515,0.763,0.470,0.925,0.651,0.317,0.554,0.523,��쓌,4.7,��
2023/06/17,09:50,0.514,0.765,0.472,0.927,0.653,0.318,0.552,0.523,��쓌,5.7,��
2023/06/17,10:00,0.515,0.766,0.473,0.924,0.653,0.316,0.551,0.522,��쓌,5.7,��
2023/06/17,10:10,0.514,0.763,0.473,0.925,0.654,0.317,0.553,0.522,��쓌,6.3,��
2023/06/17,10:20,0.517,0.765,0.473,0.927,0.654,0.318,0.554,0.523,��쓌,7.9,��
2023/06/17,10:30,0.516,0.767,0.472,0.927,0.656,0.318,0.553,0.524,��쓌,7.3,��
2023/06/17,10:40,0.516,0.767,0.474,0.927,0.654,0.318,0.552,0.523,��쓌,6.5,��
2023/06/17,10:50,0.516,0.768,0.472,0.925,0.657,0.318,0.554,0.523,��쓌,7.2,��
2023/06/17,11:00,0.516,0.768,0.475,0.926,0.657,0.317,0.555,0.523,�쓌,4.9,��
2023/06/17,11:10,0.519,0.768,0.475,0.925,0.655,0.318,0.555,0.524,�쓌,3.4,��
2023/06/17,11:20,0.518,0.769,0.475,0.925,0.657,0.319,0.554,0.524,�쓌,3.5,��
2023/06/17,11:30,0.518,0.770,0.474,0.925,0.656,0.318,0.554,0.524,��쓌,4.0,��
2023/06/17,11:40,0.519,0.771,0.474,0.925,0.657,0.317,0.553,0.525,��쓌,4.3,��
2023/06/17,11:50,0.518,0.770,0.475,0.928,0.659,0.319,0.553,0.523,��쓌,3.4,��
2023/06/17,12:00,0.518,0.771,0.476,0.927,0.660,0.318,0.554,0.525,��쓌,3.0,��
2023/06/17,12:10,0.519,0.770,0.475,0.926,0.658,0.319,0.554,0.523,��쓌,4.3,��
2023/06/17,12:20,0.520,0.773,0.476,0.926,0.659,0.318,0.555,0.524,��쓌,7.1,��
2023/06/17,12:30,0.519,0.773,0.476,0.925,0.659,0.317,0.556,0.524,��쓌,6.8,��
2023/06/17,12:40,0.521,0.773,0.476,0.927,0.662,0.321,0.555,0.525,��쓌,7.4,��
2023/06/17,12:50,0.519,0.774,0.477,0.928,0.660,0.319,0.556,0.525,��쓌,6.6,��
2023/06/17,13:00,0.520,0.773,0.477,0.928,0.660,0.319,0.555,0.525,��쓌,6.6,��
2023/06/17,13:10,0.521,0.771,0.477,0.928,0.663,0.321,0.556,0.525,��쓌,7.7,��
2023/06/17,13:20,0.521,0.773,0.476,0.927,0.659,0.320,0.557,0.525,��쓌,7.7,��
2023/06/17,13:30,0.519,0.773,0.476,0.929,0.663,0.322,0.556,0.526,��쓌,7.7,��
2023/06/17,13:40,0.521,0.773,0.476,0.928,0.662,0.320,0.557,0.524,��쓌,6.6,��
2023/06/17,13:50,0.521,0.774,0.478,0.929,0.662,0.320,0.555,0.524,��쓌,7.6,��
2023/06/17,14:00,0.521,0.775,0.478,0.929,0.663,0.320,0.556,0.525,��,7.2,��
2023/06/17,14:10,0.522,0.775,0.478,0.930,0.664,0.321,0.557,0.526,��,8.4,��
2023/06/17,14:20,0.523,0.774,0.477,0.930,0.662,0.321,0.557,0.526,��쓌,7.3,��
2023/06/17,14:30,0.522,0.775,0.480,0.928,0.665,0.322,0.557,0.527,��,6.8,��
2023/06/17,14:40,0.523,0.777,0.478,0.931,0.663,0.320,0.557,0.527,��,6.0,��
2023/06/17,14:50,0.522,0.775,0.478,0.932,0.664,0.320,0.558,0.526,��쓌,4.9,��
2023/06/17,15:00,0.522,0.778,0.478,0.933,0.665,0.321,0.557,0.526,��,6.6,��
2023/06/17,15:10,0.523,0.778,0.480,0.928,0.665,0.322,0.556,0.526,��,5.6,��
2023/06/17,15:20,0.522,0.777,0.478,0.930,0.667,0.321,0.559,0.524,��,4.1,��
2023/06/17,15:30,0.522,0.779,0.479,0.932,0.666,0.322,0.558,0.525,��쐼,3.8,��
2023/06/17,15:40,0.522,0.776,0.478,0.933,0.666,0.321,0.557,0.526,��,3.3,��
2023/06/17,15:50,0.522,0.777,0.479,0.934,0.667,0.321,0.558,0.525,��,5.1,��
2023/06/17,16:00,0.523,0.777,0.479,0.933,0.666,0.320,0.559,0.526,��쐼,4.2,��
2023/06/17,16:10,0.522,0.776,0.480,0.932,0.667,0.321,0.557,0.526,��,3.4,��
2023/06/17,16:20,0.523,0.778,0.480,0.934,0.667,0.321,0.556,0.526,���쐼,4.4,��
2023/06/17,16:30,0.524,0.779,0.480,0.934,0.668,0.322,0.557,0.526,��,3.4,��
2023/06/17,16:40,0.524,0.779,0.481,0.933,0.667,0.322,0.557,0.526,��,3.4,��
2023/06/17,16:50,0.525,0.779,0.481,0.934,0.669,0.323,0.557,0.525,���k��,2.2,��
2023/06/17,17:00,0.524,0.778,0.481,0.935,0.668,0.324,0.557,0.526,��,2.9,��
2023/06/17,17:10,0.525,0.778,0.483,0.932,0.668,0.323,0.557,0.526,���k��,3.2,��
2023/06/17,17:20,0.525,0.778,0.481,0.935,0.668,0.322,0.557,0.526,���k��,2.6,��
2023/06/17,17:30,0.526,0.780,0.481,0.937,0.666,0.323,0.556,0.524,��,1.7,��
2023/06/17,17:40,0.523,0.780,0.481,0.938,0.667,0.323,0.556,0.526,���k��,2.6,��
2023/06/17,17:50,0.524,0.780,0.482,0.938,0.668,0.324,0.555,0.526,���k��,1.9,��
2023/06/17,18:00,0.523,0.779,0.481,0.937,0.667,0.323,0.555,0.525,��,2.2,��
2023/06/17,18:10,0.523,0.778,0.479,0.939,0.667,0.322,0.556,0.527,��쐼,2.9,��
2023/06/17,18:20,0.526,0.777,0.480,0.936,0.667,0.321,0.556,0.526,�쐼,2.0,��
2023/06/17,18:30,0.525,0.780,0.481,0.938,0.666,0.322,0.556,0.526,�쐼,2.2,��
2023/06/17,18:40,0.527,0.777,0.480,0.938,0.669,0.321,0.556,0.527,�쐼,2.6,��
2023/06/17,18:50,0.525,0.779,0.479,0.938,0.667,0.322,0.557,0.527,���쐼,2.3,��
2023/06/17,19:00,0.525,0.779,0.481,0.935,0.669,0.322,0.555,0.528,���쐼,2.6,��
2023/06/17,19:10,0.525,0.781,0.479,0.937,0.668,0.322,0.558,0.528,���쐼,2.0,��
2023/06/17,19:20,0.524,0.781,0.480,0.939,0.668,0.321,0.557,0.527,���쐼,1.5,��
2023/06/17,19:30,0.526,0.781,0.481,0.937,0.670,0.321,0.557,0.528,���쐼,2.5,��
2023/06/17,19:40,0.525,0.782,0.482,0.934,0.670,0.322,0.557,0.527,���쐼,2.9,��
2023/06/17,19:50,0.524,0.781,0.482,0.937,0.669,0.323,0.556,0.527,���쐼,4.7,��
2023/06/17,20:00,0.527,0.782,0.481,0.937,0.669,0.323,0.558,0.527,���쐼,5.5,��
2023/06/17,20:10,0.524,0.782,0.482,0.937,0.669,0.323,0.557,0.528,���쐼,4.7,��
2023/06/17,20:20,0.526,0.781,0.482,0.938,0.669,0.322,0.558,0.529,�쐼,3.3,��
2023/06/17,20:30,0.526,0.781,0.481,0.938,0.669,0.321,0.558,0.528,�쐼,3.3,��
2023/06/17,20:40,0.524,0.781,0.482,0.939,0.669,0.324,0.558,0.526,�쐼,4.3,��
2023/06/17,20:50,0.526,0.781,0.479,0.937,0.670,0.323,0.559,0.528,�쐼,3.7,��
2023/06/17,21:00,0.524,0.782,0.481,0.938,0.669,0.323,0.558,0.528,�쐼,3.6,��
2023/06/17,21:10,0.525,0.781,0.481,0.938,0.668,0.322,0.557,0.527,�쐼,3.9,��
2023/06/17,21:20,0.525,0.779,0.481,0.940,0.669,0.323,0.558,0.527,�쐼,3.5,��
2023/06/17,21:30,0.525,0.781,0.481,0.940,0.668,0.323,0.559,0.527,���쐼,2.6,��
2023/06/17,21:40,0.526,0.782,0.481,0.939,0.669,0.321,0.558,0.526,��쐼,2.0,��
2023/06/17,21:50,0.526,0.780,0.480,0.941,0.669,0.323,0.557,0.528,���쐼,1.4,��
2023/06/17,22:00,0.527,0.782,0.480,0.940,0.668,0.323,0.557,0.528,��,1.5,��
2023/06/17,22:10,0.524,0.782,0.481,0.941,0.669,0.323,0.558,0.527,���k��,2.3,��
2023/06/17,22:20,0.525,0.783,0.481,0.940,0.670,0.322,0.557,0.528,�k��,1.2,��
2023/06/17,22:30,0.526,0.782,0.482,0.939,0.671,0.322,0.558,0.526,�k�k��,2.3,��
2023/06/17,22:40,0.527,0.781,0.482,0.940,0.669,0.323,0.557,0.528,�k�k��,4.0,��
2023/06/17,22:50,0.525,0.782,0.481,0.941,0.671,0.323,0.558,0.527,���k��,1.5,��
2023/06/17,23:00,0.525,0.781,0.482,0.940,0.671,0.322,0.560,0.529,�k,2.6,��
2023/06/17,23:10,0.526,0.781,0.482,0.942,0.670,0.322,0.559,0.526,�k��,0.6,��
2023/06/17,23:20,0.526,0.781,0.480,0.941,0.670,0.321,0.557,0.529,��,4.2,��
2023/06/17,23:30,0.526,0.781,0.483,0.941,0.670,0.322,0.558,0.527,��,5.2,��
2023/06/17,23:40,0.525,0.783,0.481,0.940,0.669,0.322,0.559,0.530,���쐼,4.1,��
2023/06/17,23:50,0.524,0.783,0.481,0.938,0.669,0.322,0.559,0.528,���k��,5.2,��
